Weather Roundup
Issued by NWS

Home | Current Version | Previous Version | Text Only | Print | Product List | Glossary On
Versions: 1 2 3 4 5 6 7 8 9 10 11 12 13 14 15 16 17 18 19 20 21 22 23 24 25 26 27 28 29 30 31 32 33 34 35 36 37 38 39 40 41 42 43 44 45 46 47 48 49 50
000
NZUS93 KARX 311610
HRRWXR

CURRENT HOURLY OBSERVATIONS ACROSS
MUCH OF THE UPPER MISSISSIPPI VALLEY
NATIONAL WEATHER SERVICE LA CROSSE WI
1100 AM CDT FRI JUL 31 2015


...SOUTHEAST MINNESOTA...


CITY           SKY/WX    TMP DP  RH WIND       PRES   REMARKS
ROCHESTER      SUNNY     74  56  53 NW15      30.11S
ROCHESTER/MAYO FAIR      74  51  45 NW15G25   30.10S
WINONA         SUNNY     77  52  41 NW13G20   30.06S
AUSTIN         SUNNY     75  54  46 NW15      30.12S
ALBERT LEA     SUNNY     73  55  53 NW5       30.13S
DODGE CENTER   SUNNY     73  54  49 NW15      30.11S
PRESTON        SUNNY     73  52  46 NW13G18   30.11S
OWATONNA       SUNNY     75  55  50 W13       30.11F
FARIBAULT      SUNNY     73  55  53 W13       30.11S
$$

...ELSEWHERE IN MINNESOTA...


CITY           SKY/WX    TMP DP  RH WIND       PRES   REMARKS
MINNEAPOLIS    SUNNY     77  52  41 NW18G25   30.07F
INTNL FALLS    PTSUNNY   69  58  67 NW15      29.95S
DULUTH         MOSUNNY   72  52  49 NW15      29.98S
RED WING       SUNNY     79  50  36 NW15G22   30.05S
REDWOOD FALLS  SUNNY     77  55  46 W9        30.13S
MANKATO        SUNNY     75  55  50 NW13      30.12S
WORTHINGTON    SUNNY     75  54  46 N9        30.17S
FAIRMONT       SUNNY     75  54  46 NW8       30.14S
$$

...SOUTHWEST WISCONSIN...


CITY           SKY/WX    TMP DP  RH WIND       PRES   REMARKS
LA CROSSE      SUNNY     79  55  43 NW10      30.04F
PRAIRIE DU CHI SUNNY     81  49  33 NW13G21   30.06S
BOSCOBEL       SUNNY     82  53  36 NW17G23   30.06R
LONE ROCK      SUNNY     80  50  34 NW18G28   30.04S
PLATTEVILLE    SUNNY     79  60  52 NW13      30.07S
FORT MC COY    SUNNY     78  50  37 W13G18    30.04F
CAMP DOUGLAS   MOSUNNY   77  55  47 W17G29    30.01F
VIROQUA        FAIR      74  53  47 W14G22    30.07S
WIS DELLS      SUNNY     79  47  32 W15G23    30.02S
$$

...ELSEWHERE IN WISCONSIN...


CITY           SKY/WX    TMP DP  RH WIND       PRES   REMARKS
MILWAUKEE      MOSUNNY   83  51  33 W21G29    29.96F
MADISON        MOSUNNY   79  51  37 NW14G26   30.00F
GREEN BAY      SUNNY     77  60  55 NW16      29.92R
EAU CLAIRE     SUNNY     76  53  44 NW16G25   30.02S
BLACK RVR FLS  FAIR      78  48  34 NW13G22   30.03S
MEDFORD        MOSUNNY   71  54  55 W14G25    30.00S
WAUSAU         MOSUNNY   76  52  43 NW20G28   29.96S
WIS RAPIDS     MOSUNNY   77  51  40 NW21G28   30.01R
MARSHFIELD     SUNNY     75  51  43 NW20G29   30.01S
RICE LAKE      SUNNY     72  54  53 W13G21    30.04S
$$

...NORTHEAST IOWA...


CITY           SKY/WX    TMP DP  RH WIND       PRES   REMARKS
DECORAH        SUNNY     75  55  50 NW13G21   30.09S
MASON CITY     SUNNY     78  59  51 NW13      30.14S
CHARLES CITY   SUNNY     77  59  53 NW10G16   30.12S
OELWEIN        SUNNY     77  61  57 NW13      30.11S
$$

...ELSEWHERE IN IOWA...


CITY           SKY/WX    TMP DP  RH WIND       PRES   REMARKS
DES MOINES     MOSUNNY   83  67  58 CALM      30.12S
IOWA CITY      SUNNY     83  62  49 NW9       30.10F
FORT DODGE     SUNNY     79  64  61 N7        30.15S
$$

...NORTHERN ILLINOIS...


CITY           SKY/WX    TMP DP  RH WIND       PRES   REMARKS
CHICAGO-OHARE  MOSUNNY   83  59  44 NW15G25   30.00S
CHICAGO-MIDWAY MOSUNNY   84  64  50 NW14      30.00S
MOLINE         SUNNY     85  61  44 NW10      30.07F
ROCKFORD       SUNNY     83  60  45 W15G21    30.04S
PEORIA         SUNNY     86  68  54 NW7       30.08S
$$

NOTE: "FAIR" INDICATES FEW OR NO CLOUDS BELOW 12,000 FEET WITH NO
SIGNIFICANT WEATHER AND/OR OBSTRUCTIONS TO VISIBILITY. WIND
SPEEDS ARE IN MILES-PER-HOUR.



USA.gov is the U.S. government's official web portal to all federal, state and local government web resources and services.